Hourly Data Report for November 18, 2019

All times are specified in Local Standard Time (LST). Add 1 hour to adjust for Daylight Saving Time where and when it is observed.

PINAWA
MANITOBA
Current Station Operator: ECCC - MSC

50°10'38.020" N
96°03'53.000" W
268.00 m
503B1ER
71448
WEA

Download Data

Hourly Data (November 2019)
Hourly Data Report for November 18, 2019
TIME Temp Definition
°C
Dew Point Definition
°C
Rel Hum Definition
%
Wind Dir Definition
10's deg

Wind Spd Definition
km/h
Visibility Definition
km
Stn Press Definition
kPa
Hmdx Definition


Wind Chill Definition


Weather Definition


00:00 -2.7 LegendMM LegendMM 15 10   97.43   -7 LegendNANA
01:00 -2.7 LegendMM LegendMM 16 10   97.41   -7 LegendNANA
02:00 -2.6 LegendMM LegendMM 15 12   97.36   -7 LegendNANA
03:00 -2.5 LegendMM LegendMM 14 9   97.29   -6 LegendNANA
04:00 -2.5 LegendMM LegendMM 15 11   97.22   -7 LegendNANA
05:00 -2.5 LegendMM LegendMM 15 13   97.15   -7 LegendNANA
06:00 -2.4 LegendMM LegendMM 15 14   97.14   -7 LegendNANA
07:00 -2.3 LegendMM LegendMM 14 12   97.08   -7 LegendNANA
08:00 -2.1 LegendMM LegendMM 15 11   97.11   -6 LegendNANA
09:00 -1.7 LegendMM LegendMM 15 11   97.04   -6 LegendNANA
10:00 -1.2 LegendMM LegendMM 15 10   97.00   -5 LegendNANA
11:00 -0.8 LegendMM LegendMM 16 14   97.03   -5 LegendNANA
12:00 -0.5 LegendMM LegendMM 15 10   97.00   -4 LegendNANA
13:00 -0.2 LegendMM LegendMM 15 13   96.92   -4 LegendNANA
14:00 0.2 LegendMM LegendMM 17 13   96.93     LegendNANA
15:00 0.6 LegendMM LegendMM 16 9   96.91     LegendNANA
16:00 0.7 LegendMM LegendMM 18 6   96.99     LegendNANA
17:00 0.6 LegendMM LegendMM 16 6   96.97     LegendNANA
18:00 0.5 LegendMM LegendMM 15 9   96.96     LegendNANA
19:00 0.5 LegendMM LegendMM 15 7   96.93     LegendNANA
20:00 0.4 LegendMM LegendMM 15 9   96.97     LegendNANA
21:00 0.3 LegendMM LegendMM 15 7   96.95     LegendNANA
22:00 0.3 LegendMM LegendMM 15 9   96.94     LegendNANA
23:00 0.3 LegendMM LegendMM 14 5   96.93     LegendNANA

Notes on Data Quality.

Legend

  • E = Estimated
  • M = Missing
  • NA = Not Available
Date modified: